Torna al catalogo

STARLINK-36846

AttivoComunicazioniSSO
NORAD 67894·PAYLOAD·🇺🇸 United States

Lanciato Feb 21, 2026 da Vandenberg Space Force Base

Loading…

Prossimi Passaggi (prossime 24 ore)

TLE

AggiornatoSource: CelesTrak SupGP

Epoca: Sep 15, 2026, 02:40 UTC

1 67894C 26035R   26258.11159722  .00071435  00000+0  22179-2 0  2581
2 67894  97.2847 189.9837 0001723  98.0926 266.1863 15.33396210    11

Traccia STARLINK-36846 in tempo reale con AllMySat

Download on the App Store